Theta_e
327 333 336 340 343 342 344 343 337 338 337 336 335 334 341 338 338 336 334 342 342 342 345 344 344 343 342 340 338 335 336 333 329 334 335 333 333 332 332 319 322 331 332
323 328 335 339 343 343 343 343 342 336 338 337 335 337 338 341 341 336 333 342 342 342 344 343 343 341 341 340 336 334 331 330 332 333 331 330 332 331 327 318 330 328 323
319 322 328 337 341 343 343 342 342 340 338 338 336 339 340 340 340 336 335 337 340 342 344 343 342 340 340 338 336 334 332 333 333 329 324 330 332 334 332 332 338 337 338
314 317 320 333 337 341 342 342 342 341 339 339 337 336 340 340 340 338 335 337 337 341 343 342 341 339 336 335 333 332 332 333 331 326 326 329 332 330 337 334 339 338 339
307 312 313 318 328 337 340 340 341 340 338 338 339 336 338 341 342 340 337 337 338 340 342 342 340 338 334 332 331 331 331 331 328 323 327 330 334 335 339 337 338 337 337
304 307 308 304 315 326 337 338 341 339 338 338 337 338 337 339 340 341 339 337 335 336 340 339 339 336 332 329 330 331 330 328 325 326 328 333 336 338 338 338 337 336 335
304 304 306 303 302 308 319 335 337 340 339 338 337 337 339 337 337 339 339 337 335 337 338 337 338 335 332 329 331 331 329 325 325 329 330 337 337 336 337 336 335 334 334
304 304 304 304 301 301 304 315 327 337 339 338 337 337 336 337 337 338 338 337 335 336 337 336 335 332 330 328 330 329 327 323 326 329 334 336 336 336 335 334 333 332 332
304 304 304 304 304 301 301 304 308 324 336 338 337 336 337 337 337 337 338 338 336 335 336 337 335 332 331 327 324 325 323 325 333 330 333 336 335 336 334 332 331 330 330
303 303 303 303 303 303 301 301 303 305 320 332 336 336 335 336 337 336 337 338 337 336 336 336 335 332 331 329 327 325 324 328 332 332 334 334 334 335 333 329 327 330 329
302 302 301 302 302 303 301 302 302 303 306 312 325 333 336 336 337 337 337 337 338 337 336 335 334 332 331 329 325 329 328 331 332 331 332 333 333 334 333 331 328 329 328
300 300 301 301 302 303 303 302 302 302 304 306 314 329 331 335 336 337 338 337 336 337 336 334 333 331 331 332 327 330 330 332 332 332 332 333 331 333 332 331 330 328 328
299 300 300 300 301 302 303 302 301 302 303 308 306 309 327 330 335 336 337 336 336 336 335 333 331 331 331 330 330 332 332 332 332 330 330 330 328 331 331 331 329 327 326
297 298 299 299 300 302 303 302 300 302 303 306 310 306 314 328 332 334 335 336 336 336 334 333 331 331 331 329 329 332 332 331 331 331 330 329 325 329 330 329 328 327 326
296 296 297 299 299 301 302 303 301 302 302 305 308 310 302 313 327 331 333 333 333 333 333 328 327 328 330 330 331 331 331 331 331 330 330 329 325 327 330 330 329 328 326
294 294 296 297 299 300 302 302 301 301 305 306 305 308 304 303 311 326 331 332 329 331 330 327 326 324 327 329 331 331 331 331 330 330 330 329 325 326 327 329 329 329 327
292 293 294 296 298 300 301 301 300 303 305 305 308 305 304 303 309 314 326 331 331 332 330 328 324 324 326 326 329 331 331 330 330 329 330 329 327 325 327 327 326 327 328
291 292 293 294 297 299 302 303 304 304 307 307 306 305 307 302 307 310 319 327 331 331 331 327 326 326 328 328 327 328 329 330 329 328 329 328 327 326 326 326 326 325 325
290 290 291 293 294 297 299 301 304 305 306 307 306 307 305 304 306 307 310 324 328 330 330 329 326 326 329 328 328 327 327 327 327 327 326 326 325 325 325 326 326 326 324
289 289 290 291 293 296 297 298 303 306 306 306 306 307 302 304 303 308 309 316 326 328 329 329 327 326 327 328 325 324 324 324 323 324 323 323 323 323 322 325 325 325 325
288 289 289 290 291 294 296 297 299 303 306 306 307 306 307 308 309 310 311 311 320 327 328 326 326 326 327 325 319 307 309 315 317 315 320 321 321 320 319 321 322 321 317
287 288 288 289 290 293 295 295 296 298 301 308 308 308 307 310 313 313 315 313 314 325 327 327 327 327 327 323 318 313 309 303 300 301 305 313 310 311 314 312 314 314 311
286 286 287 287 289 291 293 294 295 298 303 307 308 309 310 311 310 311 313 316 315 320 324 326 327 326 326 322 322 320 317 319 299 293 291 294 297 299 299 301 300 303 306
285 286 287 287 287 289 290 293 294 296 300 306 308 309 309 307 305 306 309 312 315 320 323 324 325 325 325 325 324 323 319 309 306 298 290 290 291 293 292 295 295 296 297
285 285 286 286 286 287 289 290 292 294 298 301 303 305 305 302 302 306 308 310 312 315 322 324 325 326 325 325 325 323 313 308 303 300 295 288 288 289 290 291 292 293 293
284 285 285 285 285 285 287 288 289 291 294 298 301 301 300 297 298 303 304 307 308 313 319 322 324 324 325 325 324 322 315 310 307 301 296 291 287 283 286 286 288 290 291
Wind_Speed
20 21 20 21 9 9 12 14 15 15 15 15 15 15 16 19 19 21 23 21 20 21 20 21 21 20 18 19 19 19 19 16 13 10 10 11 11 11 11 14 16 11 13
19 20 19 19 10 11 12 14 16 17 17 17 16 16 18 19 20 21 23 24 22 18 20 20 19 19 18 17 18 18 18 17 15 13 11 10 10 10 11 16 13 11 15
19 20 20 20 15 13 13 15 15 18 19 19 18 18 20 20 21 23 24 24 23 20 18 17 18 18 17 17 17 16 16 16 15 14 12 11 10 11 11 15 9 12 14
17 19 21 21 18 15 13 16 17 18 20 20 20 21 21 23 23 25 25 25 23 21 19 18 16 15 17 17 16 16 16 15 14 13 14 12 12 12 12 16 11 17 19
17 18 21 22 21 15 13 9 17 18 20 22 22 23 23 24 24 27 26 24 24 21 19 18 16 15 17 16 15 16 17 16 14 14 11 12 13 13 13 18 18 19 20
16 17 19 22 21 20 12 9 5 16 18 20 23 24 25 25 25 27 27 26 25 22 20 18 18 16 16 15 17 17 17 16 15 13 11 12 13 16 18 20 20 18 17
16 16 16 21 21 20 19 10 13 9 13 18 21 23 25 26 27 27 28 27 26 24 21 20 21 17 17 17 18 16 16 16 15 14 13 12 13 18 18 19 19 18 16
17 16 15 19 20 20 18 16 11 11 12 14 18 21 23 26 28 28 29 27 27 26 24 22 21 18 17 18 18 16 16 16 18 14 14 12 15 19 18 16 16 16 14
17 17 16 18 20 19 18 16 16 11 9 14 16 20 19 22 26 28 29 28 28 28 25 24 21 18 16 17 17 17 17 19 16 14 15 13 19 17 16 15 14 13 13
17 18 18 19 18 20 18 16 16 14 9 6 11 16 20 21 22 25 28 29 29 30 27 25 22 20 17 17 17 18 18 21 16 12 14 14 18 17 14 13 13 15 14
17 18 21 18 20 19 19 15 14 14 11 8 7 8 17 17 18 22 25 29 30 30 27 24 22 20 18 17 19 19 19 20 16 14 14 14 18 16 14 12 12 15 14
22 22 19 20 20 20 18 17 14 13 11 10 6 7 8 14 15 16 18 25 28 30 26 23 22 20 19 15 19 20 21 17 16 13 15 15 16 12 12 13 13 13 14
24 22 21 22 20 19 18 18 16 13 12 9 7 6 6 10 9 20 16 17 23 27 27 27 24 22 22 19 19 20 19 20 16 15 10 12 16 14 13 14 15 15 15
24 24 23 21 23 20 18 19 19 18 14 11 8 6 3 6 6 8 14 17 16 24 25 27 23 20 20 20 20 20 21 20 16 14 15 14 18 15 14 14 15 15 14
23 25 24 22 22 23 20 18 18 19 18 14 10 8 6 4 5 5 4 7 12 21 16 7 11 13 19 21 18 21 23 20 17 17 14 15 21 18 14 14 14 15 14
24 23 25 24 22 22 23 20 20 20 18 17 12 10 8 9 5 4 5 10 14 22 24 25 25 24 20 21 19 19 24 22 20 17 15 16 24 20 16 15 16 16 16
25 25 24 24 22 21 23 22 20 18 16 17 14 12 9 9 8 6 6 9 15 25 28 25 28 30 24 18 20 20 20 22 22 18 17 15 21 21 20 17 16 18 18
23 24 24 23 23 21 20 20 20 17 16 17 16 12 11 9 9 10 8 12 14 21 27 29 27 25 27 32 26 21 20 19 23 20 19 15 13 16 15 22 16 15 16
22 22 22 21 21 21 19 18 20 19 16 16 13 11 18 7 10 12 14 13 15 16 22 26 26 26 21 23 26 17 16 10 8 9 10 9 10 13 12 8 13 13 12
22 20 19 18 19 19 16 17 16 17 16 16 14 12 11 13 13 14 16 15 13 15 17 25 25 25 24 20 16 23 15 12 7 9 10 11 11 11 11 14 12 11 9
21 18 18 18 17 17 12 13 13 14 13 11 10 8 9 10 11 15 11 13 15 17 20 22 24 22 19 22 21 16 16 12 14 12 16 14 11 15 17 19 21 22 26
21 18 17 17 16 15 10 11 11 17 17 11 6 7 8 8 10 9 11 13 15 18 19 22 27 19 21 34 9 9 3 2 11 9 15 18 18 19 23 24 25 29 31
19 18 17 16 16 14 11 9 11 13 15 13 11 8 7 3 6 8 11 10 17 18 19 21 26 25 17 27 26 9 4 3 6 5 11 10 16 19 19 23 25 26 30
19 18 17 16 16 12 10 5 7 11 15 10 5 1 1 3 6 9 12 16 19 14 20 23 23 25 24 19 20 25 10 10 4 3 6 9 11 18 16 21 20 19 18
19 18 17 15 14 14 9 4 5 9 12 11 7 5 4 4 7 9 10 13 14 25 19 21 24 26 27 25 26 17 7 9 12 4 4 5 10 12 14 14 16 15 14
19 18 17 15 14 13 9 6 6 7 9 9 6 3 4 6 8 8 9 9 11 16 17 20 24 24 25 22 24 27 18 8 7 5 3 5 8 6 11 11 13 14 13
Wind_Direction
343 342 342 348 299 265 247 236 223 216 211 205 201 195 192 186 182 179 171 166 164 162 157 154 155 156 157 165 168 166 169 169 160 151 149 148 148 151 157 158 147 151 159
343 345 343 336 321 282 251 241 230 220 218 210 205 200 193 194 187 187 181 175 170 167 159 159 157 160 166 172 171 170 168 165 164 166 161 154 153 157 160 154 142 173 155
352 351 351 342 332 315 268 240 234 224 222 217 212 203 199 197 195 190 188 185 181 174 173 167 165 174 175 178 180 179 176 174 173 171 159 155 159 160 166 156 160 183 187
352 353 352 348 338 320 310 246 233 229 222 219 217 212 204 203 201 195 195 192 190 181 174 171 171 177 183 187 189 188 188 183 180 175 163 172 172 177 185 170 163 142 128
352 355 353 355 355 335 329 276 247 239 225 221 219 220 211 211 206 202 198 199 193 187 180 176 176 179 189 189 190 190 190 187 187 181 188 182 171 174 174 168 151 142 130
346 350 353 357 359 355 322 302 298 250 242 231 224 224 219 217 213 210 204 202 202 199 185 182 183 187 189 188 190 191 191 189 188 189 194 183 179 173 154 147 143 142 139
340 343 346 349 357 357 353 319 278 258 240 242 234 228 226 223 222 216 213 209 205 202 191 189 186 189 192 187 189 194 195 195 186 193 188 180 173 165 143 147 149 151 156
332 339 339 343 347 350 351 348 342 256 245 237 238 236 233 230 225 224 220 215 208 204 198 194 193 194 193 194 198 202 205 199 188 199 179 180 175 159 150 153 157 159 152
329 333 336 338 337 340 345 345 340 328 245 238 239 233 233 236 234 229 224 220 213 208 205 199 197 196 196 195 199 207 202 190 202 190 190 170 167 155 154 156 159 156 155
326 327 332 333 335 332 332 340 340 335 324 271 246 238 236 232 233 233 234 228 219 213 208 201 198 198 200 197 198 202 195 191 206 181 174 174 169 158 160 172 171 162 165
322 325 326 328 328 326 325 322 330 332 333 337 321 283 240 241 239 235 232 234 226 217 210 204 200 201 204 202 206 202 197 201 207 189 189 183 176 166 168 174 178 172 174
327 325 324 322 322 321 319 311 308 324 321 309 336 332 274 245 240 237 235 237 229 213 206 204 203 203 201 197 203 204 203 202 217 191 198 189 196 184 182 186 184 182 183
318 320 321 319 316 313 310 306 300 295 306 304 293 297 295 266 257 242 240 241 227 219 209 201 196 200 198 196 197 201 202 202 211 202 218 204 198 189 189 197 198 196 192
311 312 317 317 313 308 303 299 293 286 282 292 276 275 318 297 273 258 242 244 228 218 211 194 187 191 195 196 202 198 202 205 208 199 210 213 194 191 193 201 205 204 201
308 308 308 313 311 306 300 292 290 283 277 264 266 272 272 280 285 265 257 219 219 232 183 155 174 210 196 201 204 205 204 208 208 205 204 209 199 197 201 211 210 206 205
306 306 307 306 308 304 298 290 285 277 273 257 255 264 271 269 267 299 255 219 198 218 205 207 217 200 223 204 204 205 208 210 208 210 206 212 206 205 211 220 220 212 211
306 305 304 306 306 305 298 290 285 272 260 254 249 250 255 262 256 235 244 246 222 210 216 212 192 192 201 219 217 205 210 217 215 213 210 207 212 216 222 224 234 236 223
305 304 303 304 304 306 300 293 285 267 254 240 242 238 247 253 261 263 233 240 223 217 209 205 199 204 198 207 211 218 218 221 226 225 221 224 222 221 233 234 235 245 246
308 304 302 303 303 302 309 300 286 269 240 239 235 246 244 236 262 265 259 236 234 216 211 199 197 203 204 206 202 207 200 208 211 214 206 189 181 192 213 216 222 234 243
307 302 302 305 305 302 309 313 294 264 243 224 224 226 251 254 246 240 246 247 239 230 224 204 196 201 210 199 172 175 180 204 211 196 172 170 163 186 187 187 172 161 178
308 306 310 311 306 307 312 323 319 320 253 229 220 215 232 241 228 244 244 252 247 241 220 221 201 195 197 178 147 101 107 159 178 178 200 208 172 169 161 153 171 146 121
312 311 313 312 308 306 305 310 304 298 290 292 238 235 231 233 244 246 254 248 248 244 223 205 203 196 201 183 150 137 137 94 99 128 157 163 164 168 167 155 151 154 139
315 316 317 317 311 308 308 310 310 312 267 252 236 224 219 219 275 271 250 260 246 242 237 221 214 207 200 189 184 158 161 162 116 32 52 121 152 154 151 145 139 145 147
316 318 321 321 317 315 316 319 323 311 299 306 310 286 243 305 292 270 258 250 249 258 234 232 226 213 198 194 191 203 191 143 148 146 66 88 124 136 140 146 144 139 142
320 323 326 324 321 318 319 351 344 316 305 297 283 279 251 319 296 289 282 272 256 249 261 232 215 208 206 199 201 194 158 143 143 145 144 152 122 137 148 143 151 154 148
324 330 331 328 325 328 335 9 8 321 308 304 302 330 314 320 319 304 288 270 256 243 250 235 232 220 209 204 198 202 186 172 175 147 124 141 126 132 143 156 152 150 154